When you browse on this site, cookies collect data to enhance your experience and personalize the content and advertising you see.
Visit our Privacy Policy to learn more. By continuing to use the site, you agree to this use of cookies and data.
  • In Portugal
  • List of Countries
  • For 7 days
  • Water Temperature
  • Weather Map
  • Weather Widgets
  • user-avatar
    Login

    Hourly Weather Hozingen

    Today, 8 April, Wednesday

    Time Temperature Precipitation Wind Pressure Humidity
    00:00 +9°C° 0 mm 2 mps 725 mmHg 90%
    01:00 +10°C° 0 mm 1 mps 724 mmHg 89%
    02:00 +10°C° 0 mm 1 mps 724 mmHg 89%
    03:00 +9°C° 0 mm 1 mps 724 mmHg 88%
    04:00 +10°C° 0 mm 1 mps 724 mmHg 85%
    05:00 +10°C° 0 mm 1 mps 724 mmHg 83%
    06:00 +9°C° 0 mm 0 mps 724 mmHg 80%
    07:00 +12°C° 0 mm 1 mps 724 mmHg 72%
    08:00 +15°C° 0 mm 1 mps 724 mmHg 65%
    09:00 +18°C° 0 mm 1 mps 724 mmHg 57%
    10:00 +19°C° 0 mm 1 mps 724 mmHg 52%
    11:00 +20°C° 0 mm 1 mps 724 mmHg 46%
    12:00 +21°C° 0 mm 1 mps 724 mmHg 41%
    13:00 +21°C° 0 mm 1 mps 724 mmHg 41%
    14:00 +21°C° 0 mm 1 mps 723 mmHg 41%
    15:00 +21°C° 0 mm 1 mps 723 mmHg 40%
    16:00 +19°C° 0 mm 1 mps 723 mmHg 47%
    17:00 +16°C° 0 mm 1 mps 722 mmHg 54%
    18:00 +15°C° 0 mm 1 mps 722 mmHg 61%
    19:00 +14°C° 0 mm 1 mps 722 mmHg 63%
    20:00 +13°C° 0 mm 1 mps 722 mmHg 64%
    21:00 +13°C° 0 mm 1 mps 722 mmHg 66%
    22:00 +12°C° 0 mm 1 mps 722 mmHg 66%
    23:00 +12°C° 0 mm 1 mps 722 mmHg 66%

    Tomorrow, 9 April, Thursday

    Time Temperature Precipitation Wind Pressure Humidity
    00:00 +12°C° 0 mm 1 mps 722 mmHg 65%
    01:00 +12°C° 0 mm 1 mps 722 mmHg 66%
    02:00 +12°C° 0 mm 1 mps 722 mmHg 66%
    03:00 +12°C° 0 mm 1 mps 722 mmHg 67%
    04:00 +12°C° 0 mm 1 mps 722 mmHg 68%
    05:00 +12°C° 0 mm 1 mps 723 mmHg 70%
    06:00 +12°C° 0 mm 1 mps 723 mmHg 71%
    07:00 +14°C° 0 mm 1 mps 723 mmHg 67%
    08:00 +15°C° 0 mm 1 mps 724 mmHg 62%
    09:00 +18°C° 0 mm 1 mps 724 mmHg 57%
    10:00 +19°C° 0 mm 1 mps 724 mmHg 53%
    11:00 +20°C° 0 mm 1 mps 724 mmHg 48%
    12:00 +20°C° 0 mm 1 mps 724 mmHg 44%
    13:00 +20°C° 0 mm 1 mps 724 mmHg 48%
    14:00 +19°C° 0 mm 2 mps 723 mmHg 52%
    15:00 +18°C° 0 mm 2 mps 723 mmHg 55%
    16:00 +17°C° 0.1 mm 2 mps 723 mmHg 62%
    17:00 +16°C° 0.1 mm 2 mps 723 mmHg 69%
    18:00 +14°C° 0.1 mm 2 mps 723 mmHg 77%
    19:00 +13°C° 0 mm 2 mps 723 mmHg 80%
    20:00 +12°C° 0 mm 2 mps 723 mmHg 83%
    21:00 +10°C° 0 mm 2 mps 724 mmHg 87%
    22:00 +10°C° 0 mm 2 mps 724 mmHg 89%
    23:00 +9°C° 0 mm 2 mps 724 mmHg 91%

    Day after tomorrow, 10 April, Friday

    Time Temperature Precipitation Wind Pressure Humidity
    00:00 +9°C° 0 mm 3 mps 724 mmHg 93%
    01:00 +8°C° 0 mm 2 mps 723 mmHg 93%
    02:00 +8°C° 0 mm 2 mps 723 mmHg 93%
    03:00 +8°C° 0 mm 2 mps 723 mmHg 93%
    04:00 +8°C° 0 mm 2 mps 723 mmHg 91%
    05:00 +8°C° 0 mm 2 mps 724 mmHg 90%
    06:00 +8°C° 0 mm 2 mps 724 mmHg 89%
    07:00 +10°C° 0 mm 2 mps 724 mmHg 81%
    08:00 +13°C° 0 mm 2 mps 724 mmHg 73%
    09:00 +15°C° 0 mm 2 mps 725 mmHg 65%
    10:00 +16°C° 0 mm 2 mps 724 mmHg 60%
    11:00 +17°C° 0 mm 2 mps 724 mmHg 54%
    12:00 +18°C° 0 mm 2 mps 724 mmHg 49%
    13:00 +18°C° 0 mm 2 mps 724 mmHg 50%
    14:00 +18°C° 0 mm 2 mps 723 mmHg 50%
    15:00 +18°C° 0 mm 2 mps 723 mmHg 51%
    16:00 +16°C° 0 mm 2 mps 723 mmHg 58%
    17:00 +15°C° 0 mm 2 mps 723 mmHg 65%
    18:00 +13°C° 0 mm 2 mps 722 mmHg 72%
    19:00 +12°C° 0 mm 2 mps 722 mmHg 73%
    20:00 +10°C° 0 mm 2 mps 723 mmHg 74%
    21:00 +9°C° 0 mm 2 mps 723 mmHg 74%
    22:00 +8°C° 0 mm 2 mps 723 mmHg 73%
    23:00 +9°C° 0 mm 1 mps 722 mmHg 72%

    11 April, Saturday

    Time Temperature Precipitation Wind Pressure Humidity
    00:00 +8°C° 0 mm 1 mps 722 mmHg 71%
    01:00 +8°C° 0 mm 1 mps 722 mmHg 72%
    02:00 +8°C° 0 mm 1 mps 722 mmHg 73%
    03:00 +7°C° 0 mm 1 mps 722 mmHg 73%
    04:00 +8°C° 0 mm 1 mps 722 mmHg 74%
    05:00 +7°C° 0 mm 0 mps 722 mmHg 75%
    06:00 +8°C° 0 mm 0 mps 722 mmHg 75%
    07:00 +10°C° 0 mm 0 mps 722 mmHg 69%
    08:00 +13°C° 0 mm 1 mps 722 mmHg 63%
    09:00 +16°C° 0 mm 1 mps 723 mmHg 57%
    10:00 +18°C° 0 mm 1 mps 723 mmHg 54%
    11:00 +17°C° 0 mm 0 mps 722 mmHg 51%
    12:00 +18°C° 0 mm 0 mps 722 mmHg 47%
    13:00 +20°C° 0 mm 1 mps 722 mmHg 47%
    14:00 +20°C° 0 mm 1 mps 722 mmHg 48%
    15:00 +20°C° 0 mm 1 mps 721 mmHg 48%
    16:00 +18°C° 0 mm 1 mps 721 mmHg 54%
    17:00 +16°C° 0 mm 1 mps 720 mmHg 60%
    18:00 +15°C° 0 mm 1 mps 720 mmHg 66%
    19:00 +13°C° 0 mm 1 mps 720 mmHg 68%
    20:00 +12°C° 0 mm 1 mps 720 mmHg 71%
    21:00 +11°C° 0 mm 1 mps 720 mmHg 73%
    22:00 +11°C° 0 mm 1 mps 720 mmHg 74%
    23:00 +9°C° 0 mm 0 mps 720 mmHg 76%

    12 April, Sunday

    Time Temperature Precipitation Wind Pressure Humidity
    00:00 +8°C° 0 mm 0 mps 719 mmHg 77%
    01:00 +8°C° 0 mm 0 mps 719 mmHg 79%
    02:00 +8°C° 0 mm 0 mps 718 mmHg 80%
    03:00 +8°C° 0 mm 0 mps 718 mmHg 82%
    04:00 +8°C° 0 mm 0 mps 718 mmHg 82%
    05:00 +10°C° 0 mm 1 mps 718 mmHg 82%
    06:00 +10°C° 0 mm 1 mps 718 mmHg 82%
    07:00 +12°C° 0 mm 1 mps 717 mmHg 75%
    08:00 +14°C° 0 mm 2 mps 717 mmHg 69%
    09:00 +16°C° 0 mm 3 mps 717 mmHg 62%
    10:00 +16°C° 0.4 mm 3 mps 717 mmHg 62%
    11:00 +17°C° 0.4 mm 4 mps 716 mmHg 61%
    12:00 +17°C° 0.4 mm 4 mps 715 mmHg 60%
    13:00 +17°C° 0.4 mm 4 mps 715 mmHg 61%
    14:00 +17°C° 0.4 mm 4 mps 714 mmHg 62%
    15:00 +17°C° 0.4 mm 4 mps 714 mmHg 64%
    16:00 +14°C° 0.2 mm 3 mps 713 mmHg 68%
    17:00 +14°C° 0.2 mm 2 mps 713 mmHg 73%
    18:00 +13°C° 0.2 mm 1 mps 712 mmHg 78%
    19:00 +12°C° 0.1 mm 1 mps 712 mmHg 80%
    20:00 +12°C° 0.1 mm 1 mps 712 mmHg 82%
    21:00 +11°C° 0.1 mm 1 mps 712 mmHg 84%
    22:00 +11°C° 0 mm 1 mps 712 mmHg 86%
    23:00 +9°C° 0 mm 2 mps 712 mmHg 88%

    13 April, Monday

    Time Temperature Precipitation Wind Pressure Humidity
    00:00 +9°C° 0 mm 2 mps 712 mmHg 90%
    01:00 +9°C° 0 mm 2 mps 712 mmHg 90%
    02:00 +9°C° 0 mm 2 mps 712 mmHg 90%
    03:00 +9°C° 0 mm 2 mps 711 mmHg 90%
    04:00 +9°C° 0 mm 2 mps 712 mmHg 91%
    05:00 +9°C° 0 mm 2 mps 712 mmHg 92%
    06:00 +9°C° 0 mm 2 mps 713 mmHg 93%
    07:00 +9°C° 0.2 mm 2 mps 713 mmHg 92%
    08:00 +10°C° 0.2 mm 2 mps 714 mmHg 90%
    09:00 +10°C° 0.2 mm 2 mps 714 mmHg 88%
    10:00 +10°C° 0.6 mm 3 mps 714 mmHg 89%
    11:00 +10°C° 0.6 mm 4 mps 715 mmHg 90%
    12:00 +8°C° 0.6 mm 5 mps 715 mmHg 91%
    13:00 +8°C° 0.1 mm 5 mps 715 mmHg 89%
    14:00 +8°C° 0.1 mm 6 mps 715 mmHg 88%
    15:00 +8°C° 0.1 mm 6 mps 716 mmHg 87%
    16:00 +5°C° 0 mm 6 mps 716 mmHg 81%
    17:00 +4°C° 0 mm 6 mps 716 mmHg 75%
    18:00 +2°C° 0 mm 6 mps 717 mmHg 69%
    19:00 -1°C° 0 mm 6 mps 718 mmHg 70%
    20:00 -1°C° 0 mm 5 mps 719 mmHg 70%
    21:00 -2°C° 0 mm 5 mps 720 mmHg 70%
    22:00 -3°C° 0 mm 4 mps 720 mmHg 70%
    23:00 -4°C° 0 mm 4 mps 721 mmHg 70%
    Show more